カタログに戻る

CZ-6A DEB

運用中PO
NORAD 63393·DEBRIS·🇨🇳 China

打ち上げ Aug 6, 2024 から Taiyuan Satellite Launch Center

Loading…

次のパス (今後24時間)

TLE

最新Source: Space-Track

元期: Sep 14, 2026, 11:48 UTC

1 63393U 24140ADQ 26257.49168479  .00000414  00000-0  20421-3 0  9996
2 63393  89.0195 267.5919 0068299 273.2832  86.0543 14.14587989108234

AllMySatでCZ-6A DEBをリアルタイム追跡

Download on the App Store